Location: Pedimozza
(42.0500°N, 9.3500°E)
Time: 18:44:11
(UTC+00:00)

SJ 16-02 - Pass Details

Date: 19 August 2019
Orbit: 605 x 618 km, 75.0° (Epoch: 22 September)

Event Time Altitude Azimuth Distance (km) Brightness Sun altitude
Exits shadow 22:07:56 19° 292° (WNW) 1,486 3.7 -32.4°
Maximum altitude 22:08:23 19° 300° (WNW) 1,475 3.7 -32.5°
Drops below altitude 10° 22:11:33 10° 346° (NNW) 1,982 4.8 -32.7°
Sets 22:14:23 0° 5° (N) 2,894 5.7 -32.9°
